FW2418 Weather Reports


time (UTC)temp
C
wind
direction
speed
KPH
gust
KPH
rain 1hr
cm
rain 24hr
cm
rain mn
cm
humidity
%
barometer
mb
20260906044519 24 160 0.0 0.0 0.00 0.23 0.00 97 1010.7
20260906043518 24 160 0.0 0.0 0.00 0.23 0.00 97 1010.7
20260906042517 25 160 0.0 0.0 0.00 0.23 0.00 97 1010.7
20260906041516 25 160 0.0 0.0 0.00 0.23 0.00 97 1010.7
20260906040515 25 160 0.0 0.0 0.00 0.23 0.00 97 1010.7
20260906035514 25 160 0.0 0.0 0.00 0.23 0.23 97 1010.7
20260906034513 25 160 0.0 0.0 0.00 0.23 0.23 97 1010.7
20260906033441 25 160 0.0 0.0 0.00 0.23 0.23 98 1010.6
20260906032440 25 160 0.0 0.0 0.00 0.23 0.23 97 1010.6
20260906031440 25 160 0.0 0.0 0.00 0.23 0.23 97 1010.6
20260906030439 25 160 0.0 0.0 0.00 0.23 0.23 97 1010.6
20260906025438 25 160 0.0 0.0 0.00 0.23 0.23 97 1010.6
20260906024437 25 160 0.0 0.0 0.00 0.23 0.23 97 1010.6
20260906023436 25 160 0.0 0.0 0.00 0.23 0.23 97 1010.6
20260906022435 25 160 0.0 1.6 0.00 0.23 0.23 97 1010.6
20260906021434 25 160 0.0 1.6 0.00 0.23 0.23 97 1010.6
20260906020434 25 160 0.0 1.6 0.00 0.23 0.23 97 1010.6
20260906015433 25 165 0.0 3.2 0.00 0.23 0.23 97 1010.6
20260906014432 25 141 1.6 3.2 0.00 0.23 0.23 97 1010.6
20260906013431 25 163 0.0 1.6 0.00 0.23 0.23 97 1010.3
20260906012358 25 152 0.0 1.6 0.00 0.23 0.23 97 1010.3
20260906011357 25 156 1.6 1.6 0.00 0.23 0.23 97 1010.3
20260906010356 25 135 0.0 1.6 0.00 0.25 0.23 97 1009.9
20260906005355 25 141 0.0 1.6 0.00 0.30 0.23 97 1009.9
20260906004323 25 139 1.6 1.6 0.00 0.36 0.23 97 1009.9
20260906003323 25 134 0.0 1.6 0.00 0.41 0.23 97 1009.9
20260906002321 25 134 0.0 1.6 0.00 0.43 0.23 97 1009.9
20260906001320 25 134 0.0 1.6 0.00 0.48 0.23 97 1009.9
20260906000319 25 134 1.6 1.6 0.00 0.53 0.23 97 1009.9
20260905235319 25 128 0.0 1.6 0.00 0.56 0.23 97 1009.6
20260905234318 25 111 0.0 0.0 0.00 0.58 0.23 96 1009.9
20260905233245 26 111 0.0 0.0 0.00 0.58 0.23 96 1009.9
20260905232244 26 111 0.0 1.6 0.00 0.61 0.23 95 1009.9
20260905231244 26 112 0.0 1.6 0.00 0.61 0.23 96 1009.9
20260905230243 26 108 1.6 1.6 0.00 0.61 0.23 96 1009.9
20260905225242 26 118 1.6 1.6 0.00 0.61 0.23 95 1009.9
20260905224241 26 258 1.6 1.6 0.00 0.61 0.23 96 1009.9
20260905223240 26 159 0.0 1.6 0.00 0.64 0.23 96 1009.6
20260905222239 26 72 1.6 3.2 0.00 0.66 0.23 96 1009.6
20260905221239 26 36 0.0 1.6 0.00 0.69 0.23 96 1009.6
20260905220238 25 36 0.0 0.0 0.03 0.69 0.23 96 1009.6
20260905215205 25 36 0.0 1.6 0.03 0.69 0.23 96 1009.6
20260905214205 25 27 0.0 1.6 0.05 0.71 0.23 96 1009.6
20260905213204 25 49 0.0 1.6 0.08 0.79 0.23 96 1009.6
20260905212203 25 49 1.6 1.6 0.10 0.84 0.23 96 1009.9
20260905211132 25 49 0.0 1.6 0.10 0.84 0.23 96 1009.9
20260905210130 25 48 0.0 1.6 0.08 0.81 0.20 96 1010.3
20260905205130 25 48 0.0 1.6 0.08 0.81 0.20 96 1010.3
20260905204129 25 105 0.0 1.6 0.08 0.79 0.18 95 1010.6
20260905203128 25 118 0.0 4.8 0.08 0.76 0.15 95 1010.6
20260905202127 25 97 0.0 6.4 0.10 0.74 0.13 94 1010.6
20260905201126 25 306 1.6 1.6 0.10 0.74 0.13 95 1011.0
20260905200054 25 4 0.0 1.6 0.10 0.74 0.13 95 1010.6
20260905195053 25 155 0.0 3.2 0.10 0.74 0.13 94 1011.0
20260905194021 25 131 1.6 8.0 0.08 0.71 0.10 92 1011.3
20260905193020 26 267 1.6 8.0 0.05 0.69 0.08 86 1011.3
20260905192019 28 270 1.6 8.0 0.00 0.64 0.03 82 1011.3
20260905191019 30 326 3.2 14.5 0.00 0.64 0.03 76 1010.6
20260905190018 30 309 3.2 16.1 0.00 0.64 0.03 77 1010.0
20260905185017 30 344 3.2 16.1 0.00 0.64 0.03 75 1010.3
20260905184016 32 307 3.2 16.1 0.00 0.64 0.03 69 1010.3
20260905183015 34 270 4.8 9.7 0.00 0.64 0.03 63 1010.3
20260905182014 34 261 1.6 11.3 0.00 0.64 0.03 66 1010.3
20260905181013 35 200 3.2 11.3 0.00 0.64 0.03 62 1010.3
20260905175941 33 257 1.6 4.8 0.00 0.64 0.03 67 1010.0
20260905174937 33 299 1.6 4.8 0.00 0.64 0.03 67 1010.3
20260905173937 33 232 1.6 4.8 0.00 0.64 0.03 67 1010.3
20260905172936 33 161 1.6 4.8 0.00 0.64 0.03 67 1010.7
20260905171935 33 173 1.6 4.8 0.00 0.64 0.03 70 1010.7
20260905170934 32 249 3.2 4.8 0.00 0.64 0.03 68 1011.0
20260905165933 32 289 1.6 4.8 0.00 0.64 0.03 72 1011.3
20260905164901 32 256 1.6 3.2 0.00 0.64 0.03 73 1011.3
20260905163900 32 293 1.6 3.2 0.00 0.64 0.03 76 1011.7
20260905162859 31 288 1.6 4.8 0.00 0.64 0.03 75 1011.7
20260905161858 31 289 1.6 4.8 0.00 0.64 0.03 78 1012.0
20260905160826 32 288 1.6 4.8 0.00 0.64 0.03 77 1012.0
20260905155825 32 245 1.6 3.2 0.00 0.64 0.03 80 1012.0
20260905154824 31 250 1.6 3.2 0.00 0.64 0.03 82 1012.3
20260905153823 31 231 1.6 3.2 0.00 0.64 0.03 83 1012.3
20260905152751 30 281 1.6 3.2 0.00 0.64 0.03 86 1012.7
20260905151750 30 273 1.6 3.2 0.00 0.64 0.03 87 1012.7
20260905150749 30 279 1.6 1.6 0.00 0.64 0.03 88 1012.7
20260905145717 29 266 1.6 1.6 0.00 0.64 0.03 91 1012.7
20260905144716 28 313 1.6 1.6 0.00 0.64 0.03 94 1012.7
20260905143716 27 222 0.0 1.6 0.00 0.64 0.03 95 1012.7
20260905142715 27 222 0.0 1.6 0.00 0.64 0.03 96 1012.3
20260905141714 26 265 0.0 1.6 0.00 0.64 0.03 96 1012.3
20260905140713 26 264 0.0 1.6 0.00 0.64 0.03 97 1012.3
20260905135712 26 259 0.0 1.6 0.00 0.64 0.03 98 1012.3
20260905134711 26 226 0.0 0.0 0.00 0.64 0.03 99 1012.3
20260905133710 25 226 0.0 1.6 0.00 0.64 0.03 100 1012.3
20260905132709 25 226 0.0 1.6 0.00 0.64 0.03 100 1012.3
20260905131708 25 127 0.0 0.0 0.00 0.64 0.03 100 1012.3
20260905130708 25 127 0.0 0.0 0.00 0.64 0.03 100 1012.3
20260905125707 25 127 0.0 0.0 0.00 0.64 0.03 100 1012.3
20260905124706 25 127 0.0 0.0 0.00 0.64 0.03 100 1012.3
20260905123634 25 127 0.0 0.0 0.00 0.64 0.03 100 1011.9
20260905122602 25 127 0.0 0.0 0.00 0.64 0.03 100 1011.9
20260905121601 25 127 0.0 0.0 0.00 0.64 0.03 100 1011.9
20260905120600 24 127 0.0 0.0 0.00 0.64 0.03 100 1011.9
20260905115559 24 127 0.0 0.0 0.00 0.64 0.03 100 1011.9
20260905114558 24 127 0.0 0.0 0.00 0.64 0.03 100 1011.6
20260905113557 24 127 0.0 0.0 0.00 0.64 0.03 100 1011.6
20260905112556 24 127 0.0 0.0 0.00 0.64 0.03 100 1011.6
20260905111555 24 127 0.0 0.0 0.00 0.64 0.03 100 1011.6
20260905110554 24 127 0.0 0.0 0.00 0.64 0.03 100 1011.6
20260905105522 24 127 0.0 0.0 0.00 0.64 0.03 100 1011.3
20260905104522 24 127 0.0 0.0 0.00 0.64 0.03 100 1011.3
20260905103521 24 127 0.0 0.0 0.00 0.64 0.03 100 1010.9
20260905102520 23 127 0.0 0.0 0.00 0.64 0.03 100 1010.9
20260905101519 23 127 0.0 0.0 0.00 0.64 0.03 100 1010.9
20260905100518 23 127 0.0 0.0 0.00 0.64 0.03 100 1010.9
20260905095517 23 127 0.0 0.0 0.00 0.64 0.03 100 1010.9
20260905094516 23 127 0.0 0.0 0.03 0.64 0.03 100 1010.9
20260905093516 23 127 0.0 0.0 0.03 0.64 0.03 100 1010.9
20260905092515 23 127 0.0 0.0 0.03 0.64 0.03 100 1010.9
20260905091514 23 127 0.0 0.0 0.03 0.64 0.03 99 1011.3
20260905090514 23 127 0.0 0.0 0.03 0.64 0.03 99 1011.3
20260905085513 23 127 0.0 0.0 0.03 0.64 0.03 99 1011.3
20260905084441 23 127 0.0 0.0 0.00 0.61 0.00 99 1011.3
20260905083440 23 127 0.0 0.0 0.00 0.61 0.00 99 1011.3
20260905082408 23 127 0.0 0.0 0.00 0.61 0.00 99 1011.3
20260905081407 23 127 0.0 0.0 0.00 0.61 0.00 99 1011.3
20260905080406 23 127 0.0 0.0 0.00 0.61 0.00 99 1011.3
20260905075405 23 127 0.0 0.0 0.00 0.61 0.00 99 1011.3
20260905074404 23 127 0.0 0.0 0.00 0.61 0.00 99 1011.3
20260905073301 23 127 0.0 0.0 0.00 0.61 0.00 99 1011.0
20260905072300 23 127 0.0 0.0 0.00 0.61 0.00 99 1011.0
20260905071259 23 127 0.0 0.0 0.00 0.61 0.00 99 1011.0
20260905070259 23 127 0.0 0.0 0.00 0.61 0.00 99 1011.3
20260905065258 23 127 0.0 0.0 0.00 0.61 0.00 99 1011.3
20260905064226 24 127 0.0 0.0 0.00 0.61 0.00 99 1011.7
20260905063225 24 127 0.0 0.0 0.00 0.61 0.00 99 1011.7
20260905062224 24 127 0.0 0.0 0.00 0.61 0.00 99 1011.7
20260905061223 24 127 0.0 0.0 0.00 0.61 0.00 99 1012.0
20260905060222 24 127 0.0 0.0 0.00 0.61 0.00 99 1012.0
20260905055221 24 127 0.0 0.0 0.00 0.61 0.00 99 1012.0
20260905054150 24 127 0.0 0.0 0.00 0.61 0.00 99 1012.0
20260905053149 24 127 0.0 0.0 0.00 0.61 0.00 99 1012.4
20260905052046 24 127 0.0 0.0 0.00 0.61 0.00 99 1012.4
20260905051045 24 127 0.0 0.0 0.00 0.61 0.00 99 1012.4
20260905050044 24 127 0.0 1.6 0.00 0.61 0.00 99 1012.4
20260905045044 24 127 0.0 1.6 0.00 0.61 0.00 99 1012.7